Location: Unspecified
(42.3650°N, 71.1030°W)
Time: 15:53:28
(UTC+00:00)

Transit 4A - Pass Details

Date: 28 June 2024
Orbit: 870 x 973 km, 66.8° (Epoch: 17 July)

Event Time Altitude Azimuth Distance (km) Brightness Sun altitude
Rises 04:06:21 0° 275° (W) 3,457 11.1 -23.7°
Reaches altitude 10° 04:10:37 10° 305° (NW) 2,521 10.7 -23.8°
Maximum altitude 04:12:54 12° 329° (NNW) 2,366 10.9 -23.9°
Drops below altitude 10° 04:15:10 10° 352° (N) 2,531 11.3 -23.9°
Sets 04:19:30 0° 22° (NNE) 3,486 11.9 -24.1°
